Location: Deurze
(52.9838°N, 6.6090°E)
Time: 18:49:36
(UTC+00:00)

SL-14 R/B - Pass Details

Date: 11 March 2026
Orbit: 497 x 524 km, 82.4° (Epoch: 20 April)

Event Time Altitude Azimuth Distance (km) Brightness Sun altitude
Rises 19:41:39 0° 349° (NNW) 2,644 7.3 -20.2°
Reaches altitude 10° 19:43:47 10° 349° (N) 1,756 6.3 -20.5°
Maximum altitude 19:47:38 87° 75° (ENE) 528 3.1 -21.0°
Enters shadow 19:48:05 69° 161° (SSE) 562 3.1 -21.0°
